RADUGA 5 [-]

Last updated on Wed Jun 28 2023 00:02:57 GMT+0000 (Coordinated Universal Time)

1 11343U 79035A 23177.87202140 .00000023 00000+0 00000+0 0 9993 2 11343 7.9983 294.7854 0007435 179.0444 179.9136 1.00263200118434

Satellite not in orbit

RADUGA 5 [-]